Location: Bear Valley
(38.4650°N, 120.0390°W)
Time: 10:19:34
(UTC-08:00)

Amateur Radio Satellites - All Passes

Search period start: 23 November 2017 09:49
Search period end: 24 November 2017 09:49
Location: Bear Valley, 38.4650°N, 120.0390°W

Satellite Date Start Highest point End Downlink Frequencies (MHz)
Time Altitude Azimuth
AIST 2D 23 Nov 09:51:44 09:54:34 24° 72° (ENE) 09:57:26 435.315
POLYITAN 1 23 Nov 10:03:38 10:05:52 14° 65° (ENE) 10:08:06 437.675
EO-88 23 Nov 10:03:42 10:07:22 89° 70° (ENE) 10:11:01 145.990 - 145.960
PCSat 23 Nov 10:06:39 10:11:01 25° 253° (WSW) 10:15:22 145.827
FALCONSAT 3 23 Nov 10:08:59 10:12:34 51° 176° (S) 10:16:09 435.103
Max Valier Satellite 23 Nov 10:11:20 10:14:51 46° 286° (WNW) 10:18:23 145.860
LO-87 23 Nov 10:21:21 10:23:20 14° 93° (E) 10:25:19 145.935 - 145.965
QB50P2 23 Nov 10:25:35 10:29:11 28° 70° (ENE) 10:32:46 145.880/145.840
ESTCUBE 1 23 Nov 10:28:38 10:31:25 16° 93° (E) 10:34:10 437.505/2401.250
UNISAT 6 23 Nov 10:32:58 10:33:42 10° 269° (W) 10:34:26 437.425
TIGRISAT 23 Nov 10:36:36 10:37:20 10° 270° (W) 10:38:04 435.000
BEESAT 2 23 Nov 10:41:38 10:44:19 17° 47° (NE) 10:46:57 435.950
PRISM 23 Nov 10:43:04 10:46:01 19° 266° (W) 10:49:00 437.425
BEESAT 3 23 Nov 11:00:39 11:04:34 88° 43° (NE) 11:08:26 437.485
DUCHIFAT 1 23 Nov 11:10:23 11:14:31 62° 75° (ENE) 11:18:41 145.980
SPROUT 23 Nov 11:16:57 11:18:12 11° 91° (E) 11:19:28 437.525
EO-79 23 Nov 11:20:54 11:25:07 73° 259° (W) 11:29:20 145.935-145.965
AO-91 23 Nov 11:21:11 11:23:43 14° 62° (ENE) 11:26:15 145.960
NANOSAT C BR1 23 Nov 11:22:23 11:26:36 80° 258° (WSW) 11:30:49 145.865
AO-85 23 Nov 11:23:29 11:27:10 22° 49° (NE) 11:31:03 145.980
AIST 2D 23 Nov 11:25:34 11:27:43 16° 266° (W) 11:29:53 435.315
Gurwin Techsat 1B 23 Nov 11:33:03 11:35:24 13° 60° (ENE) 11:37:45 435.225
POLYITAN 1 23 Nov 11:37:09 11:41:13 46° 261° (W) 11:45:18 437.675
FALCONSAT 3 23 Nov 11:47:56 11:51:26 42° 191° (S) 11:54:56 435.103
BUGSAT 1 23 Nov 11:52:53 11:56:51 44° 73° (ENE) 12:00:48 437.445
LO-87 23 Nov 11:53:44 11:56:47 28° 288° (WNW) 11:59:48 145.935 - 145.965
O/OREOS (USA 219) 23 Nov 12:00:45 12:04:36 27° 103° (ESE) 12:08:28 437.305
QB50P2 23 Nov 12:01:35 12:04:55 22° 265° (W) 12:08:15 145.880/145.840
ESTCUBE 1 23 Nov 12:04:05 12:08:23 44° 288° (WNW) 12:12:40 437.505/2401.250
AO-7 23 Nov 12:09:57 12:11:13 10° 44° (NE) 12:12:28 .
VELOX 1 23 Nov 12:13:11 12:17:11 32° 97° (E) 12:21:08 145.980
BEESAT 2 23 Nov 12:18:25 12:22:15 44° 244° (WSW) 12:26:01 435.950
Oscar 19 23 Nov 12:23:30 12:28:26 53° 72° (ENE) 12:33:25 437.125/150
M-CUBED/EXP-1 PRIME 23 Nov 12:48:15 12:50:32 16° 60° (ENE) 12:52:55 437.505
SPROUT 23 Nov 12:50:16 12:54:24 54° 286° (WNW) 12:58:31 437.525
DX 1 23 Nov 12:51:08 12:54:07 18° 94° (E) 12:57:04 434.975-435.025
AO-91 23 Nov 12:54:03 12:59:24 82° 258° (WSW) 13:04:49 145.960
50 SAT 23 Nov 12:55:47 12:58:02 18° 95° (E) 13:00:16 437.505
AO-85 23 Nov 13:03:10 13:07:46 48° 244° (WSW) 13:12:40 145.980
Gurwin Techsat 1B 23 Nov 13:09:19 13:14:37 79° 256° (WSW) 13:19:58 435.225
UKube-1 23 Nov 13:26:59 13:30:41 27° 97° (E) 13:34:21 .
FALCONSAT 3 23 Nov 13:27:36 13:30:05 17° 205° (SSW) 13:32:34 435.103
BUGSAT 1 23 Nov 13:30:15 13:32:23 14° 267° (W) 13:34:30 437.445
O/OREOS (USA 219) 23 Nov 13:39:59 13:43:55 27° 299° (WNW) 13:47:51 437.305
VELOX 1 23 Nov 13:50:01 13:53:24 22° 293° (WNW) 13:56:46 145.980
AO-7 23 Nov 13:54:08 14:02:01 52° 65° (ENE) 14:09:57 .
Oscar 19 23 Nov 14:04:54 14:08:03 16° 268° (W) 14:11:13 437.125/150
NO-84 23 Nov 14:08:37 14:12:09 80° 315° (NW) 14:16:01 435.350 FM
JUGNU 23 Nov 14:20:36 14:22:12 11° 175° (S) 14:23:49 437.505
M-CUBED/EXP-1 PRIME 23 Nov 14:21:23 14:24:36 32° 258° (WSW) 14:28:05 437.505
ITAMSAT 1 23 Nov 14:21:49 14:26:41 41° 70° (ENE) 14:31:34 435.822/435.867
DX 1 23 Nov 14:26:22 14:30:23 37° 289° (WNW) 14:34:23 434.975-435.025
50 SAT 23 Nov 14:27:42 14:29:59 18° 290° (WNW) 14:32:15 437.505
UKube-1 23 Nov 15:03:06 15:06:33 24° 292° (WNW) 15:09:59 .
MOZHAYETS 4 23 Nov 15:21:23 15:25:58 86° 288° (WNW) 15:30:32
BEESAT 23 Nov 15:23:15 15:27:59 70° 102° (ESE) 15:32:42 436.000
DOVE 4 23 Nov 15:31:43 15:36:10 32° 69° (ENE) 15:40:48 437.250
ITUPSAT 1 23 Nov 15:34:49 15:39:35 89° 78° (ENE) 15:44:20 437.325
CUBESAT XI-V 23 Nov 15:40:25 15:44:39 33° 97° (E) 15:48:52 437.345
YUBILEINY 23 Nov 15:45:53 15:54:19 47° 76° (ENE) 16:02:41 435.215
AO-7 23 Nov 15:47:42 15:54:58 34° 262° (W) 16:02:18 .
NO-84 23 Nov 15:47:50 15:50:06 15° 336° (NNW) 15:52:28 435.350 FM
RS-15 23 Nov 15:57:25 16:03:58 16° 96° (E) 16:10:29 29.354- 29.394
ITAMSAT 1 23 Nov 16:02:16 16:06:16 22° 266° (W) 16:10:18 435.822/435.867
JUGNU 23 Nov 16:08:50 16:10:17 11° 186° (S) 16:11:44 437.505
CUTE-I 23 Nov 16:15:16 16:18:41 18° 63° (ENE) 16:22:08 437.470
XW-2D 23 Nov 16:32:36 16:35:25 21° 70° (ENE) 16:38:16 145.860 - 145.880
XW-2B 23 Nov 16:47:01 16:50:17 30° 72° (ENE) 16:53:34 145.730 - 145.750
HO-68 23 Nov 16:47:36 16:52:48 22° 59° (ENE) 16:58:01 435.675
NUDT-PHONESAT 23 Nov 16:50:01 16:52:50 22° 70° (ENE) 16:55:41 437.300
KKS-1 23 Nov 16:53:14 16:57:28 41° 99° (E) 17:01:37 437.445
BEESAT 23 Nov 17:03:14 17:05:08 12° 298° (WNW) 17:07:01 436.000
DOVE 4 23 Nov 17:09:27 17:13:46 29° 266° (W) 17:18:17 437.250
STARS 23 Nov 17:09:51 17:13:23 24° 96° (E) 17:16:54 437.465
XW-2C 23 Nov 17:12:18 17:16:00 67° 75° (ENE) 17:19:42 145.795 - 145.815
LilacSat-2 23 Nov 17:17:50 17:21:35 87° 76° (ENE) 17:25:21 437.200
CUBESAT XI-V 23 Nov 17:18:07 17:21:48 23° 292° (WNW) 17:25:30 437.345
XW-2F 23 Nov 17:20:19 17:23:59 80° 77° (ENE) 17:27:43 145.980 - 146.000
YUBILEINY 23 Nov 17:43:03 17:50:50 36° 275° (W) 17:58:35 435.215
KAITUO 1B 23 Nov 17:43:15 17:46:53 66° 260° (W) 17:50:33 145.475/437.950
CUTE-I 23 Nov 17:52:56 17:58:13 59° 259° (W) 18:03:32 437.470
SRMSAT 23 Nov 17:57:58 18:00:04 12° 179° (S) 18:02:10 437.500
RS-15 23 Nov 18:02:06 18:14:18 75° 116° (ESE) 18:26:32 29.354- 29.394
XW-2D 23 Nov 18:06:30 18:09:27 22° 265° (W) 18:12:25 145.860 - 145.880
CUBEBUG 2 23 Nov 18:09:05 18:13:20 40° 73° (ENE) 18:17:30 437.445
CUTE 1.7 + AOD 2 23 Nov 18:19:00 18:23:11 90° 277° (W) 18:27:24 437.475
XW-2B 23 Nov 18:22:14 18:24:30 15° 267° (W) 18:26:47 145.730 - 145.750
NUDT-PHONESAT 23 Nov 18:23:51 18:26:35 20° 265° (W) 18:29:21 437.300
KKS-1 23 Nov 18:30:44 18:33:39 17° 295° (WNW) 18:36:34 437.445
HO-68 23 Nov 18:32:39 18:39:49 71° 256° (WSW) 18:47:02 435.675
AAUSAT CUBESAT 2 23 Nov 18:41:56 18:45:46 39° 73° (ENE) 18:49:38 437.432
SEEDS 23 Nov 18:43:47 18:47:56 78° 260° (W) 18:52:07 437.485
ZACube-1 23 Nov 18:44:09 18:47:46 27° 71° (ENE) 18:51:21 437.345
STARS 23 Nov 18:45:57 18:49:40 28° 291° (WNW) 18:53:21 437.465
nSIGHT-1 23 Nov 18:46:18 18:49:04 27° 133° (SE) 18:51:49 .
UWE-3 23 Nov 18:59:34 19:04:01 83° 75° (ENE) 19:08:21 435.000/436.395/437.385
XW-2A 23 Nov 18:59:39 19:02:56 79° 78° (ENE) 19:06:16 145.665 - 145.685
NO-84 23 Nov 19:06:41 19:08:04 11° 19° (NNE) 19:09:29 435.350 FM
FO-29 23 Nov 19:11:50 19:16:56 19° 88° (E) 19:21:49 435.910
STRAND 1 23 Nov 19:21:33 19:26:38 64° 102° (ESE) 19:31:39 437.568
AO-73 23 Nov 19:32:33 19:36:50 88° 82° (E) 19:41:04 145.935
ISS 23 Nov 19:39:16 19:42:31 85° 145° (SE) 19:45:48 437.550
Oscar 11 23 Nov 19:45:33 19:49:50 82° 75° (ENE) 19:54:08 .
CUBEBUG 2 23 Nov 19:47:03 19:50:03 17° 267° (W) 19:53:01 437.445
RS-15 23 Nov 20:16:50 20:27:57 37° 320° (NW) 20:38:59 29.354- 29.394
AAUSAT CUBESAT 2 23 Nov 20:19:02 20:21:21 15° 268° (W) 20:23:42 437.432
DELFI C3 23 Nov 20:19:56 20:23:33 36° 72° (ENE) 20:27:13 145.870
SO-50 23 Nov 20:20:01 20:24:05 37° 115° (ESE) 20:28:13 436.795
ZACube-1 23 Nov 20:20:35 20:24:00 23° 265° (W) 20:27:22 437.345
nSIGHT-1 23 Nov 20:22:22 20:25:14 29° 329° (NNW) 20:28:06 .
EO-88 23 Nov 20:39:50 20:42:56 27° 72° (ENE) 20:46:02 145.990 - 145.960
NO-84 23 Nov 20:42:27 20:46:25 38° 37° (NE) 20:50:24 435.350 FM
UNISAT 6 23 Nov 20:46:42 20:48:59 14° 92° (E) 20:51:16 437.425
Max Valier Satellite 23 Nov 20:48:04 20:51:37 53° 75° (ENE) 20:55:10 145.860
TIGRISAT 23 Nov 20:50:13 20:52:28 14° 92° (E) 20:54:43 435.000
FO-29 23 Nov 20:54:55 21:02:45 80° 286° (WNW) 21:09:58 435.910
STRAND 1 23 Nov 21:02:25 21:05:13 15° 298° (WNW) 21:08:02 437.568
ISS 23 Nov 21:17:14 21:19:22 16° 337° (NNW) 21:21:31 437.550
ESTCUBE 1 23 Nov 21:27:43 21:29:44 13° 64° (ENE) 21:31:43 437.505/2401.250
DELFI C3 23 Nov 21:56:09 21:58:24 15° 267° (W) 22:00:41 145.870
SO-50 23 Nov 22:01:02 22:04:38 23° 312° (NW) 22:08:17 436.795
O/OREOS (USA 219) 23 Nov 22:11:36 22:15:54 40° 64° (ENE) 22:20:08 437.305
EO-88 23 Nov 22:14:22 22:16:35 15° 266° (W) 22:18:48 145.990 - 145.960
NO-84 23 Nov 22:19:59 22:23:41 29° 233° (SW) 22:27:18 435.350 FM
UNISAT 6 23 Nov 22:21:52 22:25:54 42° 287° (WNW) 22:29:54 437.425
PRISM 23 Nov 22:24:10 22:28:18 62° 101° (E) 22:32:22 437.425
TIGRISAT 23 Nov 22:25:21 22:29:22 43° 287° (WNW) 22:33:22 435.000
LO-87 23 Nov 22:27:07 22:30:42 82° 74° (ENE) 22:34:18 145.935 - 145.965
RS-15 23 Nov 22:37:47 22:45:34 18° 353° (N) 22:53:13 29.354- 29.394
FO-29 23 Nov 22:42:03 22:46:26 16° 305° (NW) 22:50:42 435.910
AIST 2D 23 Nov 22:50:12 22:53:29 36° 98° (E) 22:56:45 435.315
DUCHIFAT 1 23 Nov 22:58:28 22:59:11 10° 91° (E) 22:59:55 145.980
ESTCUBE 1 23 Nov 23:01:35 23:05:59 59° 259° (W) 23:10:25 437.505/2401.250
PCSat 23 Nov 23:02:39 23:07:50 50° 113° (ESE) 23:13:04 145.827
EO-79 23 Nov 23:07:42 23:10:42 19° 94° (E) 23:13:41 145.935-145.965
NANOSAT C BR1 23 Nov 23:09:00 23:11:46 17° 94° (E) 23:14:32 145.865
VELOX 1 23 Nov 23:09:03 23:12:38 24° 68° (ENE) 23:16:14 145.980
POLYITAN 1 23 Nov 23:23:23 23:27:01 29° 97° (E) 23:30:40 437.675
SPROUT 23 Nov 23:41:20 23:45:37 89° 53° (NE) 23:49:54 437.525
DX 1 23 Nov 23:46:02 23:48:17 14° 64° (ENE) 23:50:32 434.975-435.025
QB50P2 23 Nov 23:46:35 23:50:45 63° 101° (E) 23:54:52 145.880/145.840
O/OREOS (USA 219) 23 Nov 23:52:00 23:54:55 17° 260° (W) 23:57:49 437.305
PRISM 24 Nov 00:02:01 00:02:59 11° 297° (WNW) 00:03:57 437.425
UKube-1 24 Nov 00:20:18 00:23:27 20° 67° (ENE) 00:26:37 .
AIST 2D 24 Nov 00:24:55 00:26:16 12° 293° (WNW) 00:27:38 435.315
DUCHIFAT 1 24 Nov 00:31:06 00:35:10 56° 286° (WNW) 00:39:13 145.980
ISS 24 Nov 00:33:03 00:34:40 13° 18° (NNE) 00:36:17 437.550
Oscar 19 24 Nov 00:37:11 00:41:02 21° 94° (E) 00:44:53 437.125/150
EO-79 24 Nov 00:42:47 00:46:29 31° 289° (WNW) 00:50:10 145.935-145.965
NANOSAT C BR1 24 Nov 00:43:46 00:47:33 34° 289° (WNW) 00:51:18 145.865
VELOX 1 24 Nov 00:45:07 00:48:56 28° 264° (W) 00:52:46 145.980
PCSat 24 Nov 00:47:14 00:51:30 23° 310° (NW) 00:55:48 145.827
AO-91 24 Nov 00:47:32 00:50:49 21° 92° (E) 00:53:52 145.960
BEESAT 3 24 Nov 00:49:12 00:52:06 20° 111° (ESE) 00:55:01 437.485
50 SAT 24 Nov 00:51:49 00:55:02 90° 278° (W) 00:58:16 437.505
RS-15 24 Nov 00:54:26 01:04:07 27° 30° (NNE) 01:13:22 29.354- 29.394
POLYITAN 1 24 Nov 00:59:28 01:02:37 21° 292° (WNW) 01:05:46 437.675
BUGSAT 1 24 Nov 01:10:53 01:14:55 86° 284° (WNW) 01:18:54 437.445
nSIGHT-1 24 Nov 01:14:14 01:16:56 24° 29° (NNE) 01:19:36 .
DX 1 24 Nov 01:19:45 01:23:59 51° 260° (W) 01:28:16 434.975-435.025
QB50P2 24 Nov 01:25:02 01:25:57 11° 297° (WNW) 01:26:53 145.880/145.840
Gurwin Techsat 1B 24 Nov 01:27:07 01:32:14 46° 100° (E) 01:37:18 435.225
UKube-1 24 Nov 01:55:21 01:59:14 33° 262° (W) 02:03:09 .
AO-7 24 Nov 01:59:21 02:04:06 16° 91° (E) 02:08:49 .
M-CUBED/EXP-1 PRIME 24 Nov 02:00:39 02:03:53 19° 98° (E) 02:07:06 437.505
BEESAT 2 24 Nov 02:07:30 02:11:15 40° 115° (ESE) 02:15:03 435.950
ISS 24 Nov 02:08:29 02:11:42 59° 37° (NE) 02:14:54 437.550
Oscar 19 24 Nov 02:15:39 02:20:30 43° 289° (WNW) 02:25:21 437.125/150
MOZHAYETS 4 24 Nov 02:21:23 02:25:56 75° 75° (ENE) 02:30:29
AO-91 24 Nov 02:23:34 02:27:19 28° 292° (WNW) 02:30:43 145.960
BEESAT 3 24 Nov 02:25:49 02:29:24 32° 307° (NW) 02:33:02 437.485
BEESAT 24 Nov 02:27:51 02:32:34 68° 74° (ENE) 02:37:18 436.000
ITAMSAT 1 24 Nov 02:37:21 02:40:27 16° 92° (E) 02:43:32 435.822/435.867
ITUPSAT 1 24 Nov 02:39:45 02:44:32 88° 81° (E) 02:49:20 437.325
CUBESAT XI-V 24 Nov 02:42:23 02:46:14 27° 69° (ENE) 02:50:06 437.345
nSIGHT-1 24 Nov 02:50:15 02:53:12 35° 226° (SW) 02:56:08 .
RS-15 24 Nov 03:07:03 03:18:56 77° 57° (ENE) 03:30:08 29.354- 29.394
Gurwin Techsat 1B 24 Nov 03:07:52 03:11:49 22° 295° (WNW) 03:15:46 435.225
AO-85 24 Nov 03:16:26 03:20:16 83° 119° (ESE) 03:24:17 145.980
M-CUBED/EXP-1 PRIME 24 Nov 03:33:59 03:38:20 44° 292° (WNW) 03:42:43 437.505
BEESAT 2 24 Nov 03:46:18 03:49:08 18° 312° (NW) 03:52:00 435.950
ISS 24 Nov 03:46:21 03:47:48 12° 232° (SW) 03:49:14 437.550
AO-7 24 Nov 03:49:25 03:57:48 88° 106° (ESE) 04:06:11 .
KKS-1 24 Nov 03:49:43 03:53:40 32° 70° (ENE) 03:57:40 437.445
STARS 24 Nov 04:05:19 04:08:25 19° 66° (ENE) 04:11:31 437.465
BEESAT 24 Nov 04:09:22 04:10:45 11° 269° (W) 04:12:09 436.000
ITAMSAT 1 24 Nov 04:15:09 04:20:15 57° 288° (WNW) 04:25:18 435.822/435.867
CUBESAT XI-V 24 Nov 04:19:39 04:23:30 26° 264° (W) 04:27:24 437.345
YUBILEINY 24 Nov 04:44:32 04:52:59 56° 90° (E) 05:01:30 435.215
SO-50 24 Nov 04:52:24 04:56:15 25° 49° (NE) 05:00:08 436.795
LilacSat-2 24 Nov 04:55:05 04:55:36 10° 91° (E) 04:56:06 437.200
AO-85 24 Nov 05:00:30 05:01:18 10° 320° (NW) 05:02:06 145.980
DOVE 4 24 Nov 05:09:09 05:14:17 85° 283° (WNW) 05:19:05 437.250
KAITUO 1B 24 Nov 05:17:01 05:18:47 13° 92° (E) 05:20:31 145.475/437.950
RS-15 24 Nov 05:21:04 05:30:01 27° 258° (WSW) 05:38:40 29.354- 29.394
KKS-1 24 Nov 05:26:49 05:30:15 21° 265° (W) 05:33:41 437.445
XW-2D 24 Nov 05:39:20 05:42:53 36° 98° (E) 05:46:25 145.860 - 145.880
STARS 24 Nov 05:40:22 05:44:27 37° 262° (W) 05:48:34 437.465
AO-7 24 Nov 05:43:49 05:49:31 21° 307° (NW) 05:55:14 .
NUDT-PHONESAT 24 Nov 05:54:07 05:57:34 35° 98° (E) 06:01:00 437.300
XW-2B 24 Nov 05:54:08 05:57:54 55° 100° (E) 06:01:38 145.730 - 145.750
HO-68 24 Nov 06:02:55 06:08:33 24° 94° (E) 06:14:09 435.675
CUTE 1.7 + AOD 2 24 Nov 06:06:09 06:09:01 17° 93° (E) 06:11:51 437.475
CUTE-I 24 Nov 06:11:21 06:16:41 63° 102° (ESE) 06:21:56 437.470
XW-2C 24 Nov 06:19:57 06:23:44 64° 284° (WNW) 06:27:30 145.795 - 145.815
LilacSat-2 24 Nov 06:26:24 06:30:06 48° 285° (WNW) 06:33:49 437.200
XW-2F 24 Nov 06:27:24 06:31:07 55° 285° (WNW) 06:34:50 145.980 - 146.000
SEEDS 24 Nov 06:29:38 06:32:42 19° 94° (E) 06:35:44 437.485
SO-50 24 Nov 06:32:30 06:36:48 37° 245° (WSW) 06:41:08 436.795
STRAND 1 24 Nov 06:35:44 06:40:52 78° 75° (ENE) 06:46:01 437.568
YUBILEINY 24 Nov 06:42:44 06:50:10 30° 290° (WNW) 06:57:41 435.215
KAITUO 1B 24 Nov 06:49:23 06:52:52 37° 287° (WNW) 06:56:22 145.475/437.950
UWE-3 24 Nov 06:51:32 06:54:14 17° 93° (E) 06:56:58 435.000/436.395/437.385
FO-29 24 Nov 07:04:25 07:10:42 42° 67° (ENE) 07:17:39 435.910
XW-2D 24 Nov 07:14:40 07:16:42 14° 293° (WNW) 07:18:44 145.860 - 145.880
AO-73 24 Nov 07:22:40 07:25:28 17° 94° (E) 07:28:15 145.935
NUDT-PHONESAT 24 Nov 07:29:10 07:31:04 14° 293° (WNW) 07:32:57 437.300
Oscar 11 24 Nov 07:35:13 07:38:00 17° 93° (E) 07:40:46 .
CUBEBUG 2 24 Nov 07:37:24 07:41:32 71° 284° (WNW) 07:45:38 437.445
CUTE 1.7 + AOD 2 24 Nov 07:41:01 07:44:55 36° 288° (WNW) 07:48:50 437.475
UNISAT 6 24 Nov 07:44:55 07:46:43 12° 64° (ENE) 07:48:30 437.425
TIGRISAT 24 Nov 07:48:20 07:50:04 12° 64° (ENE) 07:51:48 435.000
HO-68 24 Nov 07:49:37 07:56:38 59° 291° (WNW) 08:03:36 435.675
PCSat 24 Nov 07:52:04 07:56:52 31° 53° (NE) 08:01:37 145.827
CUTE-I 24 Nov 07:52:53 07:56:09 17° 298° (WNW) 07:59:25 437.470
XW-2A 24 Nov 07:54:47 07:58:08 77° 283° (WNW) 08:01:30 145.665 - 145.685
FALCONSAT 3 24 Nov 07:56:45 07:59:49 25° 160° (SSE) 08:02:53 435.103
AAUSAT CUBESAT 2 24 Nov 08:00:08 08:04:19 87° 283° (WNW) 08:08:29 437.432
SEEDS 24 Nov 08:04:37 08:08:24 32° 289° (WNW) 08:12:11 437.485
ZACube-1 24 Nov 08:08:53 08:13:02 72° 102° (ESE) 08:17:13 437.345
STRAND 1 24 Nov 08:19:18 08:20:35 11° 270° (W) 08:21:51 437.568
UWE-3 24 Nov 08:27:03 08:30:47 34° 288° (WNW) 08:34:32 435.000/436.395/437.385
FO-29 24 Nov 08:49:42 08:55:44 36° 266° (W) 09:02:26 435.910
AO-73 24 Nov 08:58:01 09:01:45 33° 288° (WNW) 09:05:31 145.935
Oscar 11 24 Nov 09:10:14 09:14:15 38° 288° (WNW) 09:18:16 .
PRISM 24 Nov 09:11:42 09:15:26 34° 71° (ENE) 09:19:13 437.425
UNISAT 6 24 Nov 09:18:24 09:22:54 62° 259° (W) 09:27:19 437.425
TIGRISAT 24 Nov 09:21:43 09:26:14 63° 259° (W) 09:30:39 435.000
AIST 2D 24 Nov 09:24:58 09:25:55 11° 67° (ENE) 09:26:53 435.315
DELFI C3 24 Nov 09:32:10 09:36:10 75° 101° (ESE) 09:40:07 145.870
FALCONSAT 3 24 Nov 09:35:00 09:38:34 50° 174° (S) 09:42:09 435.103
PCSat 24 Nov 09:35:21 09:40:15 36° 250° (WSW) 09:45:07 145.827
HO-68 24 Nov 09:42:02 09:42:52 10° 310° (NW) 09:43:42 435.675
EO-88 24 Nov 09:42:31 09:46:02 44° 99° (E) 09:49:31 145.990 - 145.960
